| time (UTC) | temp F | wind direction | speed knots | gust knots | rain 1hr in | rain 24hr in | rain mn in | humidity % | barometer mb |
| 20260510033954 | 61 | 245 | 7.8 | 14.8 | 0.00 | 0.17 | 0.17 | 74 | 1013.2 |
| 20260510033450 | 61 | 220 | 8.7 | 12.2 | 0.00 | 0.17 | 0.17 | 73 | 1013.1 |
| 20260510032948 | 61 | 236 | 9.6 | 10.4 | 0.00 | 0.17 | 0.17 | 74 | 1013.0 |
| 20260510032445 | 61 | 221 | 6.1 | 12.2 | 0.00 | 0.17 | 0.17 | 73 | 1013.0 |
| 20260510031944 | 61 | 212 | 6.1 | 12.2 | 0.00 | 0.17 | 0.17 | 73 | 1012.7 |
| 20260510031440 | 61 | 235 | 5.2 | 9.6 | 0.00 | 0.17 | 0.17 | 73 | 1013.0 |
| 20260510030936 | 61 | 236 | 7.8 | 14.8 | 0.00 | 0.17 | 0.17 | 73 | 1013.0 |
| 20260510030432 | 61 | 239 | 6.1 | 8.7 | 0.00 | 0.17 | 0.17 | 73 | 1012.8 |
| 20260510025930 | 60 | 252 | 3.5 | 8.7 | 0.00 | 0.17 | 0.17 | 74 | 1012.7 |
| 20260510025427 | 60 | 215 | 7.8 | 9.6 | 0.00 | 0.17 | 0.17 | 74 | 1012.8 |
| 20260510024924 | 60 | 266 | 1.7 | 6.1 | 0.00 | 0.17 | 0.17 | 74 | 1012.8 |
| 20260510024420 | 60 | 241 | 5.2 | 7.0 | 0.00 | 0.17 | 0.17 | 74 | 1012.7 |
| 20260510023916 | 61 | 223 | 4.3 | 8.7 | 0.00 | 0.17 | 0.17 | 73 | 1012.6 |
| 20260510023413 | 61 | 232 | 5.2 | 9.6 | 0.00 | 0.17 | 0.17 | 73 | 1012.6 |
| 20260510022910 | 61 | 241 | 5.2 | 9.6 | 0.00 | 0.17 | 0.17 | 72 | 1012.3 |
| 20260510022409 | 61 | 207 | 4.3 | 11.3 | 0.00 | 0.17 | 0.17 | 72 | 1012.3 |
| 20260510021908 | 61 | 237 | 7.0 | 10.4 | 0.00 | 0.17 | 0.17 | 72 | 1012.4 |
| 20260510021407 | 61 | 229 | 6.1 | 11.3 | 0.00 | 0.17 | 0.17 | 72 | 1012.4 |
| 20260510020903 | 61 | 230 | 6.1 | 10.4 | 0.00 | 0.17 | 0.17 | 72 | 1012.6 |
| 20260510020358 | 61 | 242 | 4.3 | 7.8 | 0.00 | 0.17 | 0.17 | 72 | 1012.3 |
| 20260510015853 | 61 | 235 | 6.1 | 7.0 | 0.00 | 0.17 | 0.17 | 72 | 1012.3 |
| 20260510015349 | 61 | 192 | 0.9 | 6.1 | 0.00 | 0.17 | 0.17 | 72 | 1012.1 |
| 20260510014845 | 61 | 240 | 4.3 | 6.1 | 0.00 | 0.17 | 0.17 | 71 | 1012.0 |
| 20260510014342 | 61 | 239 | 2.6 | 6.1 | 0.00 | 0.17 | 0.17 | 71 | 1012.0 |
| 20260510013838 | 62 | 219 | 5.2 | 7.8 | 0.00 | 0.17 | 0.17 | 71 | 1012.0 |
| 20260510013334 | 62 | 208 | 3.5 | 7.0 | 0.00 | 0.17 | 0.17 | 71 | 1011.7 |
| 20260510012829 | 62 | 224 | 7.0 | 8.7 | 0.00 | 0.17 | 0.17 | 70 | 1011.8 |
| 20260510012324 | 62 | 241 | 6.1 | 7.8 | 0.00 | 0.17 | 0.17 | 70 | 1011.7 |
| 20260510011819 | 62 | 225 | 6.1 | 7.8 | 0.00 | 0.17 | 0.17 | 70 | 1011.7 |
| 20260510011315 | 62 | 233 | 5.2 | 6.1 | 0.00 | 0.17 | 0.17 | 70 | 1011.8 |
| 20260510010811 | 62 | 197 | 2.6 | 7.0 | 0.00 | 0.17 | 0.17 | 69 | 1011.7 |
| 20260510010309 | 62 | 223 | 5.2 | 6.1 | 0.00 | 0.17 | 0.17 | 69 | 1011.4 |
| 20260510005805 | 62 | 231 | 7.8 | 8.7 | 0.00 | 0.17 | 0.17 | 69 | 1011.7 |
| 20260510005301 | 62 | 212 | 3.5 | 7.0 | 0.00 | 0.17 | 0.17 | 68 | 1011.5 |
| 20260510004759 | 63 | 222 | 5.2 | 10.4 | 0.00 | 0.17 | 0.17 | 67 | 1011.5 |
| 20260510004257 | 63 | 255 | 4.3 | 9.6 | 0.00 | 0.17 | 0.17 | 67 | 1011.5 |
| 20260510003754 | 63 | 239 | 5.2 | 8.7 | 0.00 | 0.17 | 0.17 | 67 | 1011.4 |
| 20260510003251 | 63 | 270 | 1.7 | 8.7 | 0.00 | 0.17 | 0.17 | 66 | 1011.3 |
| 20260510002749 | 63 | 226 | 6.1 | 7.0 | 0.00 | 0.17 | 0.17 | 67 | 1011.4 |
| 20260510002247 | 63 | 218 | 6.1 | 9.6 | 0.00 | 0.17 | 0.17 | 66 | 1011.3 |
| 20260510001743 | 63 | 224 | 7.8 | 7.8 | 0.00 | 0.17 | 0.17 | 66 | 1011.2 |
| 20260510001242 | 63 | 203 | 2.6 | 6.1 | 0.00 | 0.17 | 0.17 | 66 | 1011.1 |
| 20260510000737 | 64 | 220 | 6.1 | 7.0 | 0.00 | 0.17 | 0.17 | 65 | 1011.0 |
| 20260510000235 | 64 | 213 | 4.3 | 7.8 | 0.00 | 0.17 | 0.17 | 65 | 1011.0 |
| 20260509235732 | 64 | 244 | 5.2 | 7.8 | 0.00 | 0.17 | 0.17 | 64 | 1010.9 |
| 20260509235228 | 64 | 265 | 3.5 | 11.3 | 0.00 | 0.17 | 0.17 | 63 | 1010.9 |
| 20260509234724 | 65 | 220 | 4.3 | 7.0 | 0.00 | 0.17 | 0.17 | 63 | 1010.9 |
| 20260509234221 | 65 | 249 | 4.3 | 8.7 | 0.00 | 0.17 | 0.17 | 63 | 1010.8 |
| 20260509233720 | 65 | 221 | 4.3 | 10.4 | 0.00 | 0.17 | 0.17 | 62 | 1010.8 |
| 20260509233217 | 66 | 233 | 4.3 | 9.6 | 0.00 | 0.17 | 0.17 | 62 | 1011.0 |
| 20260509232713 | 66 | 246 | 4.3 | 13.0 | 0.00 | 0.17 | 0.17 | 61 | 1010.7 |
| 20260509232210 | 66 | 278 | 6.1 | 10.4 | 0.00 | 0.17 | 0.17 | 62 | 1010.8 |
| 20260509231706 | 66 | 222 | 8.7 | 12.2 | 0.00 | 0.17 | 0.17 | 61 | 1010.9 |
| 20260509231203 | 66 | 274 | 2.6 | 12.2 | 0.00 | 0.17 | 0.17 | 61 | 1010.8 |
| 20260509230700 | 66 | 240 | 9.6 | 14.8 | 0.00 | 0.17 | 0.17 | 60 | 1010.8 |
| 20260509230151 | 66 | 253 | 4.3 | 10.4 | 0.00 | 0.17 | 0.17 | 60 | 1010.8 |
| 20260509225647 | 66 | 251 | 2.6 | 9.6 | 0.00 | 0.17 | 0.17 | 61 | 1010.9 |
| 20260509225143 | 65 | 232 | 5.2 | 9.6 | 0.00 | 0.17 | 0.17 | 61 | 1011.0 |
| 20260509224639 | 66 | 255 | 3.5 | 11.3 | 0.00 | 0.17 | 0.17 | 61 | 1011.1 |
| 20260509224136 | 66 | 212 | 9.6 | 15.6 | 0.00 | 0.17 | 0.17 | 60 | 1011.0 |
| 20260509223633 | 66 | 271 | 7.8 | 12.2 | 0.00 | 0.17 | 0.17 | 60 | 1011.0 |
| 20260509223130 | 66 | 280 | 7.8 | 12.2 | 0.00 | 0.17 | 0.17 | 60 | 1011.1 |
| 20260509222627 | 66 | 254 | 6.1 | 12.2 | 0.00 | 0.17 | 0.17 | 59 | 1011.1 |
| 20260509222122 | 66 | 237 | 13.0 | 16.5 | 0.00 | 0.17 | 0.17 | 60 | 1011.1 |
| 20260509221619 | 67 | 247 | 9.6 | 10.4 | 0.00 | 0.17 | 0.17 | 59 | 1011.0 |
| 20260509221114 | 66 | 222 | 7.0 | 13.0 | 0.00 | 0.17 | 0.17 | 62 | 1011.2 |
| 20260509220610 | 67 | 217 | 3.5 | 13.9 | 0.00 | 0.17 | 0.17 | 60 | 1011.1 |
| 20260509220107 | 67 | 216 | 6.1 | 7.0 | 0.00 | 0.17 | 0.17 | 60 | 1011.1 |
| 20260509215602 | 67 | 262 | 5.2 | 17.4 | 0.00 | 0.17 | 0.17 | 59 | 1011.1 |
| 20260509215100 | 67 | 232 | 7.0 | 12.2 | 0.00 | 0.17 | 0.17 | 59 | 1011.2 |
| 20260509214557 | 67 | 210 | 4.3 | 11.3 | 0.00 | 0.17 | 0.17 | 61 | 1011.3 |
| 20260509214053 | 66 | 231 | 6.1 | 16.5 | 0.00 | 0.17 | 0.17 | 61 | 1011.2 |
| 20260509213549 | 65 | 239 | 3.5 | 13.0 | 0.00 | 0.17 | 0.17 | 62 | 1011.3 |
| 20260509213046 | 65 | 284 | 4.3 | 13.9 | 0.00 | 0.17 | 0.17 | 62 | 1011.2 |
| 20260509212544 | 66 | 258 | 7.8 | 17.4 | 0.00 | 0.17 | 0.17 | 61 | 1011.3 |
| 20260509212041 | 66 | 264 | 7.0 | 15.6 | 0.00 | 0.17 | 0.17 | 62 | 1011.3 |
| 20260509211536 | 65 | 249 | 4.3 | 8.7 | 0.00 | 0.17 | 0.17 | 63 | 1011.2 |
| 20260509211033 | 65 | 242 | 8.7 | 11.3 | 0.00 | 0.17 | 0.17 | 64 | 1011.2 |
| 20260509210530 | 65 | 242 | 7.8 | 15.6 | 0.00 | 0.17 | 0.17 | 63 | 1011.3 |
| 20260509210026 | 65 | 233 | 12.2 | 21.7 | 0.00 | 0.17 | 0.17 | 62 | 1011.1 |
| 20260509205525 | 65 | 204 | 8.7 | 11.3 | 0.00 | 0.17 | 0.17 | 63 | 1011.1 |
| 20260509205021 | 66 | 218 | 5.2 | 14.8 | 0.00 | 0.17 | 0.17 | 64 | 1011.1 |
| 20260509204518 | 66 | 257 | 5.2 | 7.8 | 0.00 | 0.17 | 0.17 | 63 | 1011.2 |
| 20260509204014 | 66 | 223 | 7.0 | 13.9 | 0.00 | 0.17 | 0.17 | 64 | 1011.2 |
| 20260509203510 | 65 | 239 | 3.5 | 9.6 | 0.00 | 0.17 | 0.17 | 66 | 1011.2 |
| 20260509203009 | 65 | 229 | 4.3 | 9.6 | 0.00 | 0.17 | 0.17 | 67 | 1011.3 |
| 20260509202509 | 65 | 242 | 7.0 | 13.0 | 0.00 | 0.17 | 0.17 | 67 | 1011.2 |
| 20260509202004 | 65 | 288 | 6.1 | 9.6 | 0.00 | 0.17 | 0.17 | 69 | 1011.4 |
| 20260509201459 | 65 | 199 | 4.3 | 11.3 | 0.00 | 0.17 | 0.17 | 68 | 1011.3 |
| 20260509200957 | 64 | 209 | 8.7 | 13.0 | 0.00 | 0.17 | 0.17 | 67 | 1011.5 |
| 20260509200452 | 65 | 220 | 8.7 | 9.6 | 0.00 | 0.17 | 0.17 | 68 | 1011.5 |
| 20260509195948 | 65 | 227 | 13.0 | 14.8 | 0.00 | 0.17 | 0.17 | 67 | 1011.8 |
| 20260509195444 | 66 | 242 | 6.1 | 10.4 | 0.00 | 0.17 | 0.17 | 67 | 1011.8 |
| 20260509194944 | 64 | 228 | 7.8 | 10.4 | 0.00 | 0.17 | 0.17 | 69 | 1011.7 |
| 20260509194439 | 64 | 243 | 3.5 | 7.8 | 0.00 | 0.17 | 0.17 | 70 | 1011.7 |
| 20260509193937 | 63 | 232 | 3.5 | 12.2 | 0.00 | 0.17 | 0.17 | 70 | 1011.9 |
| 20260509193436 | 64 | 264 | 7.0 | 9.6 | 0.00 | 0.17 | 0.17 | 69 | 1011.8 |
| 20260509192932 | 64 | 241 | 3.5 | 14.8 | 0.00 | 0.17 | 0.17 | 70 | 1011.7 |
| 20260509192429 | 65 | 239 | 5.2 | 12.2 | 0.00 | 0.17 | 0.17 | 69 | 1011.8 |
| 20260509191924 | 64 | 263 | 2.6 | 9.6 | 0.00 | 0.17 | 0.17 | 71 | 1011.9 |
| 20260509191420 | 63 | 248 | 7.0 | 12.2 | 0.00 | 0.17 | 0.17 | 71 | 1011.8 |
| 20260509190916 | 64 | 272 | 5.2 | 7.8 | 0.00 | 0.17 | 0.17 | 72 | 1011.8 |
| 20260509190414 | 63 | 252 | 3.5 | 11.3 | 0.00 | 0.17 | 0.17 | 72 | 1011.8 |
| 20260509185911 | 63 | 232 | 7.8 | 11.3 | 0.00 | 0.17 | 0.17 | 74 | 1011.9 |
| 20260509185408 | 64 | 247 | 4.3 | 13.0 | 0.00 | 0.17 | 0.17 | 74 | 1011.8 |
| 20260509184905 | 63 | 214 | 7.0 | 8.7 | 0.00 | 0.17 | 0.17 | 76 | 1011.8 |
| 20260509184401 | 62 | 220 | 1.7 | 6.1 | 0.00 | 0.17 | 0.17 | 76 | 1011.8 |
| 20260509183859 | 63 | 243 | 3.5 | 4.3 | 0.00 | 0.17 | 0.17 | 77 | 1011.9 |
| 20260509183353 | 61 | 205 | 4.3 | 6.1 | 0.00 | 0.17 | 0.17 | 78 | 1011.9 |
| 20260509182849 | 61 | 247 | 2.6 | 5.2 | 0.00 | 0.17 | 0.17 | 81 | 1011.9 |
| 20260509182347 | 60 | 204 | 1.7 | 5.2 | 0.00 | 0.17 | 0.17 | 81 | 1011.8 |
| 20260509181844 | 59 | 196 | 2.6 | 5.2 | 0.00 | 0.17 | 0.17 | 83 | 1011.7 |
| 20260509181341 | 59 | 262 | 4.3 | 7.0 | 0.00 | 0.17 | 0.17 | 84 | 1011.9 |
| 20260509180838 | 59 | 210 | 5.2 | 7.8 | 0.00 | 0.17 | 0.17 | 84 | 1011.9 |
| 20260509180334 | 59 | 223 | 4.3 | 6.1 | 0.00 | 0.17 | 0.17 | 86 | 1011.9 |
| 20260509175831 | 58 | 205 | 4.3 | 7.0 | 0.00 | 0.17 | 0.17 | 86 | 1011.9 |
| 20260509175327 | 58 | 205 | 3.5 | 9.6 | 0.00 | 0.17 | 0.17 | 87 | 1011.9 |
| 20260509174823 | 58 | 200 | 2.6 | 7.0 | 0.00 | 0.17 | 0.17 | 87 | 1011.9 |
| 20260509174319 | 58 | 210 | 2.6 | 7.8 | 0.00 | 0.17 | 0.17 | 87 | 1011.7 |
| 20260509173815 | 58 | 209 | 6.1 | 6.1 | 0.00 | 0.17 | 0.17 | 87 | 1011.9 |
| 20260509173311 | 57 | 222 | 4.3 | 6.1 | 0.00 | 0.17 | 0.17 | 87 | 1012.0 |
| 20260509172807 | 57 | 213 | 3.5 | 7.0 | 0.00 | 0.17 | 0.17 | 87 | 1012.1 |
| 20260509172306 | 57 | 189 | 2.6 | 5.2 | 0.00 | 0.17 | 0.17 | 89 | 1012.1 |
| 20260509171800 | 57 | 199 | 3.5 | 8.7 | 0.00 | 0.17 | 0.17 | 89 | 1012.0 |
| 20260509171256 | 56 | 221 | 5.2 | 7.0 | 0.00 | 0.17 | 0.17 | 90 | 1012.2 |
| 20260509170753 | 56 | 214 | 2.6 | 5.2 | 0.00 | 0.17 | 0.17 | 91 | 1012.4 |
| 20260509170249 | 56 | 207 | 2.6 | 5.2 | 0.00 | 0.17 | 0.17 | 90 | 1012.2 |
| 20260509165748 | 56 | 211 | 2.6 | 5.2 | 0.00 | 0.17 | 0.17 | 91 | 1012.3 |
| 20260509165243 | 56 | 217 | 3.5 | 4.3 | 0.00 | 0.17 | 0.17 | 91 | 1012.2 |
| 20260509164739 | 56 | 264 | 2.6 | 5.2 | 0.00 | 0.17 | 0.17 | 91 | 1012.2 |
| 20260509164235 | 57 | 223 | 3.5 | 4.3 | 0.00 | 0.17 | 0.17 | 90 | 1011.9 |
| 20260509163732 | 57 | 198 | 2.6 | 5.2 | 0.00 | 0.17 | 0.17 | 90 | 1012.0 |
| 20260509163229 | 56 | 222 | 6.1 | 7.8 | 0.00 | 0.17 | 0.17 | 89 | 1012.0 |
| 20260509162727 | 56 | 212 | 3.5 | 6.1 | 0.00 | 0.17 | 0.17 | 90 | 1012.1 |
| 20260509162221 | 55 | 228 | 4.3 | 4.3 | 0.00 | 0.17 | 0.17 | 91 | 1012.2 |
| 20260509161717 | 55 | 201 | 2.6 | 6.1 | 0.00 | 0.17 | 0.17 | 91 | 1012.1 |
| 20260509161214 | 55 | 151 | 2.6 | 2.6 | 0.00 | 0.17 | 0.17 | 92 | 1012.1 |
| 20260509160709 | 55 | 208 | 0.0 | 3.5 | 0.00 | 0.17 | 0.17 | 92 | 1012.1 |
| 20260509160205 | 55 | 197 | 2.6 | 5.2 | 0.00 | 0.17 | 0.17 | 92 | 1012.2 |
| 20260509155701 | 55 | 154 | 2.6 | 4.3 | 0.00 | 0.17 | 0.17 | 92 | 1012.3 |
| 20260509155157 | 54 | 195 | 1.7 | 5.2 | 0.00 | 0.17 | 0.17 | 92 | 1012.6 |
| 20260509154653 | 54 | 173 | 0.0 | 5.2 | 0.00 | 0.17 | 0.17 | 92 | 1012.6 |
| 20260509154151 | 55 | 197 | 2.6 | 3.5 | 0.00 | 0.17 | 0.17 | 92 | 1012.6 |
| 20260509153647 | 55 | 203 | 3.5 | 4.3 | 0.00 | 0.17 | 0.17 | 92 | 1012.6 |
| 20260509153144 | 55 | 206 | 1.7 | 4.3 | 0.00 | 0.17 | 0.17 | 92 | 1012.6 |
| 20260509152639 | 55 | 184 | 1.7 | 5.2 | 0.02 | 0.17 | 0.17 | 93 | 1012.4 |
| 20260509152137 | 55 | 212 | 1.7 | 3.5 | 0.02 | 0.17 | 0.17 | 93 | 1012.7 |
| 20260509151634 | 54 | 154 | 2.6 | 2.6 | 0.00 | 0.17 | 0.17 | 93 | 1012.6 |
| 20260509151131 | 54 | 176 | 1.7 | 1.7 | 0.00 | 0.17 | 0.17 | 93 | 1012.8 |
| 20260509150629 | 54 | 194 | 1.7 | 1.7 | 0.00 | 0.17 | 0.17 | 93 | 1012.8 |
| 20260509150127 | 54 | 180 | 0.9 | 1.7 | 0.00 | 0.17 | 0.17 | 93 | 1012.8 |
| 20260509145623 | 53 | 192 | 0.9 | 4.3 | 0.00 | 0.17 | 0.17 | 94 | 1012.8 |
| 20260509145118 | 53 | 206 | 1.7 | 2.6 | 0.00 | 0.17 | 0.17 | 94 | 1012.9 |
| 20260509144615 | 53 | 161 | 0.0 | 1.7 | 0.00 | 0.17 | 0.17 | 94 | 1012.9 |
| 20260509144112 | 53 | 166 | 0.9 | 0.9 | 0.00 | 0.17 | 0.17 | 95 | 1012.9 |
| 20260509143609 | 53 | 198 | 0.9 | 2.6 | 0.00 | 0.17 | 0.17 | 95 | 1013.1 |
| 20260509143107 | 53 | 205 | 2.6 | 2.6 | 0.00 | 0.17 | 0.17 | 95 | 1012.9 |
| 20260509142602 | 53 | 192 | 0.9 | 1.7 | 0.00 | 0.17 | 0.17 | 95 | 1012.9 |
| 20260509142058 | 53 | 203 | 0.9 | 1.7 | 0.00 | 0.17 | 0.17 | 96 | 1012.7 |
| 20260509141554 | 53 | 197 | 1.7 | 2.6 | 0.00 | 0.17 | 0.17 | 96 | 1012.8 |
| 20260509141051 | 53 | 195 | 1.7 | 1.7 | 0.02 | 0.17 | 0.17 | 96 | 1012.6 |
| 20260509140548 | 52 | 192 | 1.7 | 1.7 | 0.02 | 0.17 | 0.17 | 96 | 1012.9 |
| 20260509140046 | 52 | 209 | 1.7 | 1.7 | 0.00 | 0.17 | 0.17 | 96 | 1012.9 |
| 20260509135543 | 52 | 212 | 0.9 | 3.5 | 0.05 | 0.17 | 0.17 | 95 | 1013.0 |
| 20260509135041 | 52 | 201 | 1.7 | 2.6 | 0.05 | 0.16 | 0.16 | 96 | 1012.9 |
| 20260509134537 | 52 | 213 | 1.7 | 2.6 | 0.05 | 0.16 | 0.16 | 96 | 1013.1 |
| 20260509134035 | 52 | 212 | 1.7 | 3.5 | 0.05 | 0.15 | 0.15 | 96 | 1012.9 |
| 20260509133532 | 52 | 210 | 2.6 | 4.3 | 0.05 | 0.15 | 0.15 | 96 | 1012.8 |
| 20260509133029 | 52 | 162 | 0.0 | 4.3 | 0.02 | 0.15 | 0.15 | 96 | 1012.9 |
| 20260509132528 | 52 | 204 | 1.7 | 3.5 | 0.00 | 0.14 | 0.14 | 96 | 1012.8 |
| 20260509132026 | 52 | 198 | 2.6 | 3.5 | 0.00 | 0.14 | 0.14 | 97 | 1012.9 |
| 20260509131521 | 52 | 205 | 3.5 | 4.3 | 0.00 | 0.14 | 0.14 | 97 | 1013.1 |
| 20260509131018 | 52 | 209 | 0.9 | 4.3 | 0.00 | 0.14 | 0.14 | 97 | 1013.0 |
| 20260509130514 | 51 | 194 | 0.0 | 2.6 | 0.02 | 0.14 | 0.14 | 97 | 1012.8 |
| 20260509130011 | 51 | 221 | 1.7 | 2.6 | 0.02 | 0.14 | 0.14 | 97 | 1013.0 |
| 20260509125507 | 51 | 174 | 0.9 | 2.6 | 0.02 | 0.14 | 0.14 | 97 | 1013.0 |
| 20260509125003 | 51 | 198 | 2.6 | 3.5 | 0.05 | 0.14 | 0.14 | 96 | 1013.2 |
| 20260509124501 | 51 | 198 | 0.9 | 2.6 | 0.05 | 0.13 | 0.13 | 97 | 1013.3 |
| 20260509123958 | 51 | 206 | 2.6 | 4.3 | 0.05 | 0.13 | 0.13 | 96 | 1013.4 |
| 20260509123455 | 51 | 207 | 2.6 | 4.3 | 0.07 | 0.13 | 0.13 | 96 | 1013.3 |
| 20260509122951 | 51 | 219 | 3.5 | 4.3 | 0.02 | 0.12 | 0.12 | 96 | 1013.4 |
| 20260509122448 | 51 | 278 | 0.9 | 2.6 | 0.02 | 0.11 | 0.11 | 96 | 1013.3 |
| 20260509121945 | 51 | 218 | 2.6 | 2.6 | 0.05 | 0.11 | 0.11 | 96 | 1013.2 |
| 20260509121442 | 51 | 168 | 1.7 | 2.6 | 0.02 | 0.11 | 0.11 | 96 | 1013.4 |
| 20260509120940 | 51 | 216 | 4.3 | 4.3 | 0.02 | 0.11 | 0.11 | 96 | 1013.4 |
| 20260509120438 | 51 | 199 | 1.7 | 2.6 | 0.05 | 0.10 | 0.10 | 95 | 1013.3 |
| 20260509115935 | 51 | 201 | 2.6 | 2.6 | 0.02 | 0.10 | 0.10 | 95 | 1013.4 |
| 20260509115432 | 51 | 190 | 1.7 | 2.6 | 0.02 | 0.09 | 0.09 | 95 | 1013.4 |
| 20260509114929 | 51 | 245 | 4.3 | 6.1 | 0.02 | 0.09 | 0.09 | 95 | 1013.4 |
| 20260509114428 | 50 | 249 | 2.6 | 4.3 | 0.00 | 0.09 | 0.09 | 96 | 1013.4 |
| 20260509113927 | 51 | 294 | 0.9 | 1.7 | 0.05 | 0.09 | 0.09 | 96 | 1013.1 |
| 20260509113424 | 51 | 194 | 0.9 | 1.7 | 0.05 | 0.09 | 0.09 | 96 | 1013.2 |
| 20260509112921 | 51 | 213 | 1.7 | 1.7 | 0.02 | 0.08 | 0.08 | 96 | 1013.1 |
| 20260509112418 | 51 | 160 | 0.0 | 1.7 | 0.02 | 0.08 | 0.08 | 96 | 1013.3 |
| 20260509111915 | 51 | 139 | 1.7 | 2.6 | 0.00 | 0.08 | 0.08 | 96 | 1013.0 |
| 20260509111412 | 51 | 180 | 0.9 | 2.6 | 0.00 | 0.08 | 0.08 | 96 | 1013.2 |
| 20260509110910 | 51 | 165 | 0.0 | 1.7 | 0.02 | 0.08 | 0.08 | 95 | 1012.9 |
| 20260509110405 | 51 | 117 | 0.9 | 1.7 | 0.02 | 0.08 | 0.08 | 95 | 1012.9 |
| 20260509105904 | 51 | 71 | 1.7 | 1.7 | 0.00 | 0.07 | 0.07 | 95 | 1013.0 |
| 20260509105402 | 50 | 172 | 0.0 | 0.0 | 0.02 | 0.07 | 0.07 | 95 | 1012.8 |
| 20260509104858 | 50 | 172 | 0.0 | 2.6 | 0.02 | 0.07 | 0.07 | 95 | 1012.9 |
| 20260509104355 | 50 | 186 | 0.0 | 0.0 | 0.00 | 0.07 | 0.07 | 95 | 1013.1 |
| 20260509103853 | 51 | 186 | 0.0 | 0.9 | 0.02 | 0.07 | 0.07 | 95 | 1012.8 |
| 20260509103350 | 50 | 180 | 0.9 | 1.7 | 0.02 | 0.07 | 0.07 | 94 | 1012.8 |
| 20260509102849 | 51 | 160 | 0.0 | 2.6 | 0.00 | 0.07 | 0.07 | 94 | 1012.9 |
| 20260509102345 | 51 | 161 | 1.7 | 2.6 | 0.00 | 0.07 | 0.07 | 94 | 1012.9 |
| 20260509101841 | 51 | 150 | 1.7 | 3.5 | 0.02 | 0.07 | 0.07 | 94 | 1012.8 |
| 20260509101337 | 51 | 206 | 2.6 | 3.5 | 0.02 | 0.07 | 0.07 | 93 | 1013.1 |
| 20260509100835 | 51 | 233 | 0.0 | 1.7 | 0.00 | 0.06 | 0.06 | 93 | 1013.0 |
| 20260509100332 | 51 | 184 | 1.7 | 2.6 | 0.02 | 0.06 | 0.06 | 92 | 1013.0 |
| 20260509095829 | 51 | 160 | 0.9 | 0.9 | 0.02 | 0.06 | 0.06 | 91 | 1013.1 |
| 20260509095326 | 51 | 199 | 0.0 | 0.0 | 0.02 | 0.06 | 0.06 | 90 | 1013.1 |
| 20260509094823 | 52 | 199 | 0.0 | 0.0 | 0.02 | 0.06 | 0.06 | 89 | 1013.1 |
| 20260509094320 | 52 | 199 | 0.0 | 0.0 | 0.02 | 0.06 | 0.06 | 88 | 1013.3 |
| 20260509093818 | 52 | 199 | 0.0 | 0.0 | 0.02 | 0.06 | 0.06 | 88 | 1013.3 |
| 20260509093315 | 52 | 199 | 0.0 | 0.0 | 0.00 | 0.05 | 0.05 | 88 | 1013.4 |
| 20260509092813 | 52 | 199 | 0.0 | 0.0 | 0.02 | 0.05 | 0.05 | 88 | 1013.5 |
| 20260509092311 | 52 | 199 | 0.0 | 0.0 | 0.05 | 0.05 | 0.05 | 88 | 1013.6 |
| 20260509091809 | 52 | 199 | 0.0 | 0.0 | 0.02 | 0.04 | 0.04 | 87 | 1013.4 |
| 20260509091305 | 52 | 244 | 3.5 | 3.5 | 0.00 | 0.04 | 0.04 | 86 | 1013.6 |
| 20260509090802 | 52 | 255 | 0.0 | 2.6 | 0.00 | 0.04 | 0.04 | 86 | 1013.8 |
| 20260509090259 | 52 | 198 | 0.9 | 3.5 | 0.05 | 0.04 | 0.04 | 85 | 1013.3 |
| 20260509085757 | 52 | 199 | 1.7 | 4.3 | 0.05 | 0.04 | 0.04 | 84 | 1013.6 |
| 20260509085254 | 53 | 237 | 3.5 | 4.3 | 0.02 | 0.03 | 0.03 | 84 | 1013.7 |
| 20260509084750 | 53 | 180 | 2.6 | 6.1 | 0.05 | 0.03 | 0.03 | 82 | 1013.3 |
| 20260509084247 | 53 | 237 | 1.7 | 3.5 | 0.12 | 0.03 | 0.03 | 82 | 1013.4 |
| 20260509083745 | 53 | 255 | 2.6 | 7.0 | 0.09 | 0.02 | 0.02 | 80 | 1013.3 |
| 20260509083242 | 54 | 230 | 4.3 | 7.0 | 0.05 | 0.01 | 0.01 | 77 | 1013.4 |
| 20260509082738 | 55 | 254 | 3.5 | 6.1 | 0.00 | 0.00 | 0.00 | 73 | 1013.5 |
| 20260509082235 | 55 | 219 | 10.4 | 10.4 | 0.00 | 0.00 | 0.00 | 70 | 1013.5 |
| 20260509081732 | 56 | 261 | 7.8 | 13.0 | 0.00 | 0.00 | 0.00 | 69 | 1013.5 |
| 20260509081229 | 56 | 216 | 11.3 | 15.6 | 0.00 | 0.00 | 0.00 | 67 | 1013.3 |
| 20260509080728 | 56 | 210 | 8.7 | 12.2 | 0.00 | 0.00 | 0.00 | 65 | 1013.3 |
| 20260509080225 | 57 | 243 | 3.5 | 11.3 | 0.00 | 0.00 | 0.00 | 64 | 1012.8 |
| 20260509075723 | 57 | 225 | 6.1 | 13.0 | 0.00 | 0.00 | 0.00 | 64 | 1012.8 |
| 20260509075220 | 57 | 218 | 4.3 | 8.7 | 0.00 | 0.00 | 0.00 | 62 | 1012.8 |
| 20260509074717 | 57 | 237 | 3.5 | 12.2 | 0.00 | 0.00 | 0.00 | 61 | 1012.4 |
| 20260509074214 | 58 | 244 | 6.1 | 11.3 | 0.00 | 0.00 | 0.00 | 59 | 1012.2 |
| 20260509073711 | 58 | 229 | 11.3 | 11.3 | 0.00 | 0.00 | 0.00 | 59 | 1012.1 |
| 20260509073207 | 59 | 239 | 5.2 | 10.4 | 0.00 | 0.00 | 0.00 | 56 | 1012.1 |
| 20260509072703 | 58 | 221 | 7.0 | 10.4 | 0.00 | 0.00 | 0.00 | 55 | 1012.1 |
| 20260509072200 | 59 | 223 | 3.5 | 9.6 | 0.00 | 0.00 | 0.00 | 55 | 1012.1 |
| 20260509071657 | 59 | 221 | 7.8 | 13.9 | 0.00 | 0.00 | 0.00 | 54 | 1011.9 |
| 20260509071155 | 58 | 268 | 4.3 | 17.4 | 0.00 | 0.00 | 0.00 | 54 | 1012.0 |
| 20260509070651 | 58 | 251 | 5.2 | 8.7 | 0.00 | 0.00 | 0.00 | 54 | 1012.2 |
| 20260509070148 | 58 | 146 | 3.5 | 11.3 | 0.00 | 0.00 | 0.00 | 54 | 1011.8 |
| 20260509065644 | 58 | 227 | 6.1 | 9.6 | 0.00 | 0.00 | 0.00 | 54 | 1011.9 |
| 20260509065140 | 58 | 180 | 1.7 | 5.2 | 0.00 | 0.00 | 0.00 | 55 | 1011.8 |
| 20260509064637 | 58 | 205 | 3.5 | 7.8 | 0.00 | 0.00 | 0.00 | 54 | 1011.8 |
| 20260509064135 | 59 | 144 | 2.6 | 8.7 | 0.00 | 0.00 | 0.00 | 53 | 1011.8 |
| 20260509063632 | 58 | 202 | 6.1 | 8.7 | 0.00 | 0.00 | 0.00 | 54 | 1011.8 |
| 20260509063128 | 58 | 227 | 2.6 | 7.0 | 0.00 | 0.00 | 0.00 | 56 | 1011.7 |
| 20260509062625 | 58 | 214 | 2.6 | 7.0 | 0.00 | 0.00 | 0.00 | 56 | 1012.0 |
| 20260509062122 | 58 | 238 | 3.5 | 6.1 | 0.00 | 0.00 | 0.00 | 56 | 1012.1 |
| 20260509061619 | 58 | 215 | 3.5 | 6.1 | 0.00 | 0.00 | 0.00 | 55 | 1011.9 |
| 20260509061116 | 58 | 214 | 3.5 | 7.0 | 0.00 | 0.00 | 0.00 | 55 | 1012.0 |
| 20260509060614 | 57 | 198 | 0.9 | 2.6 | 0.00 | 0.00 | 0.00 | 59 | 1012.2 |
| 20260509060110 | 57 | 191 | 1.7 | 4.3 | 0.00 | 0.00 | 0.00 | 60 | 1012.2 |
| 20260509055605 | 56 | 229 | 2.6 | 3.5 | 0.00 | 0.00 | 0.00 | 60 | 1012.1 |
| 20260509055101 | 55 | 186 | 2.6 | 2.6 | 0.00 | 0.00 | 0.00 | 64 | 1012.2 |
| 20260509054558 | 56 | 195 | 1.7 | 2.6 | 0.00 | 0.00 | 0.00 | 63 | 1012.3 |
| 20260509054056 | 55 | 180 | 0.0 | 0.9 | 0.00 | 0.00 | 0.00 | 65 | 1012.4 |
| 20260509053555 | 56 | 180 | 1.7 | 2.6 | 0.00 | 0.00 | 0.00 | 62 | 1012.7 |
| 20260509053051 | 56 | 110 | 1.7 | 1.7 | 0.00 | 0.00 | 0.00 | 61 | 1012.4 |
| 20260509052549 | 57 | 123 | 2.6 | 2.6 | 0.00 | 0.00 | 0.00 | 58 | 1012.3 |
| 20260509052047 | 57 | 99 | 0.0 | 2.6 | 0.00 | 0.00 | 0.00 | 58 | 1012.6 |
| 20260509051544 | 57 | 180 | 0.0 | 1.7 | 0.00 | 0.00 | 0.00 | 60 | 1012.7 |
| 20260509051041 | 57 | 172 | 1.7 | 2.6 | 0.00 | 0.00 | 0.00 | 60 | 1012.7 |
| 20260509050538 | 57 | 180 | 0.9 | 1.7 | 0.00 | 0.00 | 0.00 | 59 | 1012.7 |
| 20260509050034 | 58 | 123 | 0.0 | 1.7 | 0.00 | 0.00 | 0.00 | 58 | 1013.0 |
| 20260509045532 | 58 | 190 | 1.7 | 1.7 | 0.00 | 0.00 | 0.00 | 57 | 1013.0 |
| 20260509045029 | 57 | 180 | 0.0 | 1.7 | 0.00 | 0.00 | 0.00 | 58 | 1012.9 |
| 20260509044526 | 58 | 115 | 1.7 | 2.6 | 0.00 | 0.00 | 0.00 | 57 | 1013.0 |
| 20260509044024 | 58 | 197 | 2.6 | 2.6 | 0.00 | 0.00 | 0.00 | 56 | 1012.9 |
| 20260509043520 | 58 | 151 | 0.0 | 1.7 | 0.00 | 0.00 | 0.00 | 57 | 1013.2 |
| 20260509043016 | 58 | 194 | 0.9 | 2.6 | 0.00 | 0.00 | 0.00 | 56 | 1013.3 |
| 20260509042512 | 58 | 194 | 0.9 | 1.7 | 0.00 | 0.00 | 0.00 | 56 | 1013.3 |
| 20260509042008 | 58 | 106 | 0.0 | 0.9 | 0.00 | 0.00 | 0.00 | 55 | 1013.4 |
| 20260509041505 | 59 | 206 | 1.7 | 3.5 | 0.00 | 0.00 | 0.00 | 55 | 1013.2 |
| 20260509041003 | 59 | 201 | 1.7 | 2.6 | 0.00 | 0.00 | 0.00 | 55 | 1013.2 |
| 20260509040501 | 58 | 240 | 0.9 | 1.7 | 0.00 | 0.00 | 0.00 | 56 | 1013.1 |
| 20260509035957 | 58 | 209 | 0.0 | 2.6 | 0.00 | 0.00 | 0.00 | 56 | 1013.5 |
| 20260509035454 | 58 | 180 | 0.0 | 1.7 | 0.00 | 0.00 | 0.00 | 58 | 1013.4 |
| 20260509034951 | 58 | 189 | 1.7 | 2.6 | 0.00 | 0.00 | 0.00 | 56 | 1013.4 |
| 20260509034449 | 59 | 172 | 0.0 | 1.7 | 0.00 | 0.00 | 0.00 | 56 | 1013.5 |